Theta_e
315 314 315 319 316 314 314 313 312 315 318 321 321 322 322 325 326 325 326 328 327 327 328 329 328 326 323 319 316 315 325 327 327 325 325 319 324 320 322 326 326 327 325 327 332
314 315 316 314 317 317 314 312 312 313 315 317 320 321 321 322 324 326 325 327 328 328 327 329 327 322 322 321 319 320 326 326 322 321 321 319 321 319 323 325 326 327 329 331 332
311 314 315 316 315 316 317 313 311 313 314 315 316 320 321 321 321 321 322 323 324 327 328 329 328 321 323 321 321 318 326 321 320 318 317 319 320 317 323 323 323 324 324 331 331
313 310 314 315 315 314 316 316 311 312 313 314 314 318 321 321 321 321 325 323 323 325 328 327 325 324 324 326 321 324 320 318 321 318 318 320 318 320 319 321 318 320 318 329 331
312 312 310 313 315 313 313 317 314 311 312 313 314 318 321 321 320 325 322 326 324 326 328 325 326 323 325 322 322 324 322 321 320 320 320 318 320 320 319 317 315 314 317 319 327
312 312 312 311 313 314 312 314 317 312 312 313 314 318 320 321 318 320 321 323 326 327 327 324 324 322 323 323 323 321 322 322 321 321 320 321 321 319 319 315 315 317 316 317 324
309 311 313 309 313 313 312 314 317 314 313 313 314 316 319 316 318 318 318 320 327 327 326 326 323 323 322 325 321 322 326 323 321 322 322 319 322 320 317 316 317 317 315 314 313
306 309 311 312 311 313 312 313 316 317 313 313 314 316 314 315 317 320 323 323 327 327 326 326 325 320 322 321 321 325 322 328 323 321 321 321 328 322 317 317 319 317 316 315 315
305 305 309 312 310 313 312 313 314 316 315 313 315 313 312 311 315 318 324 325 326 325 324 323 324 325 323 327 328 324 328 324 324 320 321 321 323 320 318 317 317 316 316 315 316
304 303 306 311 311 312 312 312 312 315 316 315 314 313 311 312 315 317 322 323 321 320 322 323 325 328 327 327 328 324 325 324 324 322 321 322 321 319 318 317 318 316 315 315 316
304 302 302 307 312 310 312 312 313 315 315 315 314 313 309 313 315 317 321 321 319 322 325 324 327 329 325 324 323 322 321 322 321 321 322 321 322 320 318 316 317 317 317 316 316
303 303 304 303 311 310 311 312 312 313 317 311 313 310 310 316 317 316 320 321 322 322 321 324 325 320 322 324 327 327 327 325 322 320 321 321 323 320 318 319 319 319 318 317 316
303 303 303 303 308 311 311 312 312 313 315 313 312 312 312 315 315 316 318 318 320 321 322 321 319 318 319 321 325 325 326 324 325 322 320 320 322 320 317 317 316 315 315 315 314
302 302 302 303 306 311 310 311 311 312 315 316 314 313 310 313 314 314 318 317 320 322 320 322 317 318 319 321 321 325 319 320 321 323 326 318 322 316 314 314 313 313 312 311 311
301 303 301 304 308 310 309 310 311 311 316 312 314 311 311 312 311 314 315 315 317 319 319 318 318 321 321 321 319 321 317 319 319 321 322 321 324 317 314 316 314 315 313 310 306
299 301 302 303 304 309 309 310 310 313 315 314 313 315 314 312 313 314 316 312 312 317 316 314 314 316 317 317 317 315 319 320 321 323 326 320 321 319 315 315 314 312 310 307 304
300 302 303 303 304 309 309 310 313 314 309 313 314 313 313 314 314 314 317 317 314 318 318 318 318 316 315 320 317 319 322 325 325 325 322 316 321 320 314 315 311 310 309 304 302
302 302 303 302 301 308 309 312 313 312 309 311 312 312 313 312 313 314 315 315 313 310 311 315 317 318 316 318 321 322 321 323 324 321 318 314 323 318 313 312 310 308 303 302 300
301 302 303 303 300 308 310 312 312 308 310 310 311 311 313 314 314 314 314 314 313 309 310 312 311 313 315 316 315 318 322 317 316 310 315 315 313 311 309 307 308 305 303 300 299
302 302 302 303 307 308 308 311 308 308 309 309 311 312 312 313 314 315 315 312 311 311 308 309 308 313 313 316 316 316 315 320 320 320 319 316 315 316 311 310 306 304 301 298 297
298 299 302 306 308 309 310 309 304 306 309 310 309 312 310 312 313 314 314 310 311 310 309 308 309 315 314 318 318 320 319 319 318 320 321 319 314 308 311 307 305 300 298 297 295
293 301 304 307 307 303 306 304 304 305 307 309 309 307 309 310 311 313 312 310 309 310 313 310 308 311 315 314 312 315 317 319 320 318 315 314 316 312 309 306 302 300 298 296 295
297 299 300 300 303 302 302 303 304 304 306 308 310 309 307 309 312 312 310 307 307 310 312 312 313 314 313 314 315 317 317 316 316 312 314 319 314 311 308 305 303 301 298 297 295
298 302 298 299 299 301 302 303 303 303 306 306 309 308 309 308 308 310 310 307 307 309 311 312 309 312 311 309 310 315 315 316 317 318 316 317 315 314 309 306 303 301 300 298 295
294 295 294 302 302 300 301 302 299 301 304 305 306 308 310 311 310 307 309 309 309 310 311 311 313 309 309 309 310 311 312 315 317 315 314 313 312 313 312 307 305 304 302 299 296
296 297 294 288 300 301 302 303 302 301 302 304 304 305 305 308 309 309 308 308 310 310 312 312 314 309 310 308 310 313 310 312 316 315 314 313 311 311 310 308 308 308 303 299 293
296 296 294 294 291 298 298 298 301 301 301 301 303 303 305 305 304 305 306 307 307 311 312 314 312 312 313 308 310 314 312 311 311 312 312 314 312 309 310 310 310 307 301 297 291
Wind_Speed
23 24 23 24 23 20 20 18 18 18 15 11 11 10 8 7 8 9 7 4 2 3 7 11 7 13 5 3 4 2 4 1 3 4 2 2 2 0 0 1 2 1 2 1 1
24 24 24 25 22 23 22 21 19 19 18 15 11 9 8 6 5 9 15 9 6 4 5 8 5 9 3 3 3 4 3 6 2 2 1 1 2 1 2 1 2 3 2 1 8
27 25 25 25 24 23 24 21 19 19 19 18 14 11 9 5 2 7 11 18 17 10 3 0 2 2 3 1 2 2 4 3 1 1 1 1 1 0 3 2 5 4 2 2 8
25 27 27 27 26 23 24 22 20 20 19 19 16 13 10 11 6 1 3 8 18 15 6 3 2 3 2 1 1 2 2 3 1 3 1 2 4 4 4 3 3 3 2 2 5
25 26 29 28 27 27 25 22 22 19 20 19 18 16 13 4 6 4 6 3 8 14 9 4 3 4 4 3 0 3 3 2 2 3 3 1 5 4 4 8 4 6 4 5 7
21 25 27 28 28 26 25 24 23 21 19 19 19 18 7 14 6 11 5 6 6 13 6 5 5 4 4 2 3 2 2 1 3 4 3 3 3 2 5 3 2 0 5 6 7
19 19 26 28 27 26 26 25 24 22 20 20 18 19 10 12 3 11 14 4 4 13 6 6 3 3 5 2 1 3 2 0 4 3 4 4 4 8 6 3 7 8 5 5 8
24 20 24 27 28 27 26 26 23 24 21 20 16 14 5 11 15 5 9 10 9 10 5 9 5 4 3 3 3 3 4 1 2 3 3 5 13 3 3 5 7 5 7 7 8
25 24 19 27 28 28 27 24 22 21 22 17 12 8 5 7 13 14 9 13 12 8 6 9 6 3 2 4 4 3 4 5 5 1 2 6 4 5 2 3 6 7 7 8 11
30 29 29 25 29 27 26 24 20 16 19 17 8 3 3 5 8 22 8 14 5 9 4 3 3 4 3 8 11 7 4 3 6 1 2 6 10 11 10 6 9 8 7 9 13
28 26 34 16 30 31 27 19 8 5 12 5 8 2 2 7 15 17 13 9 5 3 8 5 4 13 16 10 3 3 4 6 1 3 1 7 14 11 11 5 9 11 11 11 14
25 28 29 33 27 33 32 8 18 6 6 2 16 4 3 9 4 6 18 8 8 11 7 4 18 8 2 10 12 10 7 5 3 2 2 6 20 9 6 9 12 13 12 16 17
27 32 28 29 22 32 32 30 24 16 3 5 4 11 4 8 6 12 15 6 7 13 16 15 0 14 9 5 8 6 13 5 5 0 3 6 25 13 7 6 7 9 15 13 11
27 29 30 29 20 34 29 36 28 12 4 7 13 5 4 6 4 6 17 7 4 12 8 10 8 7 4 14 7 10 6 5 4 2 6 3 15 13 6 11 4 11 7 9 10
29 30 32 34 4 25 27 37 26 7 12 12 9 13 10 12 9 5 5 3 8 7 6 5 8 13 8 7 9 7 6 8 5 3 3 5 6 3 9 5 8 13 7 7 6
34 30 36 33 31 31 35 38 20 10 12 8 9 10 16 11 3 6 6 5 2 4 2 3 2 5 8 5 11 8 5 3 2 3 10 8 9 19 3 6 2 2 1 4 5
33 33 37 32 14 35 44 19 13 12 9 9 12 15 24 13 13 6 12 12 8 9 14 5 6 2 3 7 3 6 8 3 4 6 7 6 9 22 9 13 7 9 3 7 8
29 31 35 34 36 45 34 13 14 12 9 4 13 19 21 12 15 13 15 15 10 2 5 13 7 11 6 6 6 11 9 4 6 4 2 2 8 6 2 4 6 6 11 10 10
26 30 26 29 37 48 14 18 11 7 11 14 15 17 11 14 10 15 15 18 16 12 8 9 7 2 2 4 9 5 10 9 3 3 2 5 9 13 5 5 7 8 10 10 9
23 17 23 32 45 36 15 12 6 5 7 12 12 13 16 18 12 17 18 15 13 18 2 7 2 2 4 3 1 6 7 4 5 5 7 4 5 7 7 9 7 6 7 9 9
7 4 16 48 42 12 13 9 5 1 3 7 5 7 13 13 15 17 16 4 22 16 11 5 4 3 6 8 14 6 6 2 1 4 5 4 5 6 6 5 9 6 5 5 6
3 4 18 44 10 4 5 10 6 4 3 5 4 3 12 18 17 17 14 18 17 15 19 8 4 5 9 4 6 8 12 11 6 5 4 1 7 5 6 9 16 16 11 7 7
2 4 3 13 3 4 4 6 5 4 3 3 3 3 2 9 11 14 12 7 10 16 17 13 6 4 2 3 2 8 11 11 4 2 7 6 5 5 5 7 7 15 11 10 9
3 4 4 3 1 7 7 4 6 3 3 4 3 4 2 4 3 17 9 5 11 16 12 19 4 15 14 5 7 8 9 14 12 5 13 12 13 10 9 10 8 10 10 9 7
4 1 1 4 3 8 7 3 5 4 4 6 3 7 3 6 11 4 15 4 5 15 14 11 8 7 9 4 4 4 14 17 19 25 12 22 11 15 15 14 17 13 10 11 9
3 3 3 3 10 8 2 7 14 4 8 5 8 14 16 9 2 10 5 6 6 5 14 5 4 8 9 7 6 3 6 16 23 23 15 20 11 5 10 11 14 14 13 11 10
4 3 4 1 3 7 6 6 6 4 2 4 15 9 10 18 18 13 5 9 7 14 15 10 6 6 15 6 6 8 20 15 14 19 14 16 26 7 10 16 19 16 14 13 11
Wind_Direction
250 249 244 239 232 229 228 227 225 224 223 221 221 224 234 245 259 273 269 236 224 325 344 347 350 359 19 55 40 112 66 173 185 166 215 315 173 79 285 101 293 145 186 180 288
251 245 243 241 236 232 229 227 227 223 221 217 215 213 218 230 265 261 248 241 241 308 1 26 8 357 40 20 19 80 113 214 195 197 166 282 207 210 126 52 287 321 196 333 179
253 252 242 239 235 235 230 225 223 222 220 216 211 206 199 190 11 248 262 248 244 256 298 343 27 55 61 12 10 146 168 207 234 201 222 312 304 311 138 245 224 208 264 153 187
253 248 247 240 236 234 232 225 221 219 219 214 207 201 187 164 217 168 338 244 220 217 214 155 73 76 95 191 339 132 229 168 12 31 358 306 310 306 177 239 326 148 325 230 212
247 250 246 240 233 232 229 226 220 216 217 214 203 194 178 181 236 179 23 52 185 187 186 155 135 135 175 186 139 156 212 173 337 323 273 317 262 257 263 266 291 308 304 285 271
247 244 245 243 237 230 227 221 220 212 211 211 203 196 186 220 222 225 262 39 162 172 161 162 182 177 140 160 173 142 170 315 326 299 276 236 249 166 266 328 11 268 298 300 286
252 247 243 243 239 230 224 218 217 210 207 204 202 202 223 215 227 233 238 234 168 178 149 179 124 137 137 160 223 138 251 348 222 230 250 173 259 239 220 305 280 290 300 302 298
251 251 240 239 234 228 221 216 211 208 203 201 196 194 233 215 238 247 179 172 157 171 158 171 151 109 161 137 52 166 79 146 276 189 245 152 264 235 170 192 247 301 307 319 308
258 252 267 234 233 222 217 212 206 204 201 189 179 168 233 222 204 217 185 161 153 141 121 139 137 166 142 172 234 213 234 201 306 136 285 191 261 245 152 175 277 280 289 298 295
244 250 244 236 228 220 212 204 198 194 183 166 152 122 237 201 172 201 190 167 122 125 81 114 163 178 191 198 215 206 216 206 208 300 246 256 255 271 270 261 266 275 274 274 276
237 245 247 268 220 216 201 173 154 197 190 197 153 222 149 159 172 182 178 140 120 148 181 197 205 203 205 221 212 162 198 217 253 204 210 246 261 257 271 285 276 277 271 265 262
231 237 238 245 225 214 200 190 191 129 164 211 167 125 159 152 128 192 185 160 182 198 133 179 227 211 108 195 202 217 223 206 218 264 212 294 280 256 231 251 249 258 267 265 273
227 225 233 240 240 208 195 195 181 160 160 181 153 175 181 166 192 188 174 153 183 194 189 211 133 179 193 203 201 212 226 169 215 12 250 324 286 271 233 227 237 242 243 264 273
227 220 226 232 242 199 193 191 186 164 232 173 170 200 183 130 254 172 193 171 173 192 154 220 211 163 163 211 171 220 160 160 141 103 266 154 287 274 258 248 233 257 279 280 286
226 220 219 219 245 184 189 185 183 129 224 178 157 160 163 166 141 215 161 86 182 169 171 202 184 186 201 201 185 236 154 173 151 180 287 214 275 308 82 321 277 265 270 277 347
229 228 214 217 226 187 179 171 158 207 208 174 137 165 159 196 164 127 152 70 122 145 34 214 275 185 187 159 182 152 108 104 125 195 242 209 202 276 211 194 277 302 164 35 50
220 223 212 202 217 178 164 160 195 211 156 169 167 168 182 178 176 157 173 178 170 182 215 155 206 177 136 148 91 165 134 197 212 199 254 206 189 250 310 301 225 244 211 83 64
216 215 211 205 218 171 161 186 208 191 168 172 159 176 184 152 193 186 166 192 213 153 152 207 208 195 174 198 171 189 185 193 216 200 231 54 232 251 125 317 354 5 97 91 71
213 222 210 210 227 171 176 200 186 145 158 152 162 175 180 179 165 184 191 198 193 194 172 181 234 60 205 166 155 175 213 213 327 98 260 224 270 281 53 43 10 111 101 92 81
205 206 208 200 189 173 189 191 152 107 126 148 168 174 182 178 169 185 183 200 197 199 213 193 111 225 182 165 174 171 157 159 191 225 232 245 259 236 355 325 23 66 79 82 78
150 138 207 181 170 180 191 177 102 347 161 150 136 162 178 178 187 184 189 188 192 190 175 145 126 179 139 203 191 182 198 144 137 191 219 227 244 200 224 238 113 81 86 95 97
176 123 150 156 162 177 138 144 110 137 13 101 77 82 176 177 189 190 193 206 197 161 193 180 142 175 199 175 194 216 210 187 219 196 219 223 272 178 225 162 144 152 162 165 136
65 86 113 72 103 105 87 77 84 107 132 92 118 61 348 161 189 197 208 184 166 176 176 176 201 170 249 214 195 206 214 214 193 97 210 222 252 181 179 173 190 154 157 151 146
81 90 59 72 126 84 86 84 103 121 122 134 112 99 348 168 198 194 201 196 176 188 177 169 180 210 218 206 141 199 199 209 196 221 233 233 247 216 203 193 165 163 163 155 146
34 1 293 146 98 79 75 106 99 159 211 144 135 159 177 222 196 183 203 147 201 178 185 176 221 209 234 164 166 208 203 202 207 222 210 243 222 238 203 187 185 172 166 155 153
106 122 41 56 118 81 108 176 183 177 161 194 193 198 191 223 213 199 169 178 185 197 190 201 229 179 237 208 197 215 207 208 214 229 228 245 256 151 188 170 180 180 170 167 159
55 35 84 65 95 154 181 171 165 124 229 215 212 180 197 214 205 223 209 293 260 172 191 191 181 176 231 172 171 235 234 210 218 225 213 220 238 142 171 184 191 184 178 164 155